When you browse on this site, cookies collect data to enhance your experience and personalize the content and advertising you see.
Visit our Privacy Policy to learn more. By continuing to use the site, you agree to this use of cookies and data.
  • en France
  • Liste des pays
  • À 7 jours
  • Température de l'eau
  • Carte satellitaire
  • Carte météo
  • Widgets météo
  • user-avatar
    Se connecter

    Météo par heure à Tyldesley

    Ce jour, 16 Juin, Dimanche

    Heure Température Précipitation Vent Pression Humidité
    00:00 +9°C° 0 mm 2 m/s 754 mmHg 77%
    01:00 +9°C° 0 mm 2 m/s 754 mmHg 80%
    02:00 +9°C° 0 mm 2 m/s 753 mmHg 82%
    03:00 +8°C° 0 mm 3 m/s 753 mmHg 85%
    04:00 +9°C° 0 mm 3 m/s 753 mmHg 85%
    05:00 +9°C° 0 mm 3 m/s 754 mmHg 85%
    06:00 +10°C° 0 mm 3 m/s 754 mmHg 85%
    07:00 +11°C° 0 mm 3 m/s 754 mmHg 79%
    08:00 +13°C° 0 mm 4 m/s 754 mmHg 72%
    09:00 +14°C° 0 mm 4 m/s 754 mmHg 66%
    10:00 +15°C° 0.2 mm 4 m/s 754 mmHg 65%
    11:00 +17°C° 0.2 mm 4 m/s 754 mmHg 64%
    12:00 +18°C° 0.2 mm 4 m/s 753 mmHg 64%
    13:00 +18°C° 0.4 mm 4 m/s 753 mmHg 62%
    14:00 +19°C° 0.4 mm 5 m/s 753 mmHg 61%
    15:00 +19°C° 0.4 mm 5 m/s 753 mmHg 59%
    16:00 +17°C° 0.2 mm 5 m/s 753 mmHg 65%
    17:00 +16°C° 0.2 mm 5 m/s 753 mmHg 70%
    18:00 +15°C° 0.2 mm 4 m/s 754 mmHg 76%
    19:00 +15°C° 0.2 mm 5 m/s 754 mmHg 78%
    20:00 +14°C° 0.2 mm 5 m/s 754 mmHg 81%
    21:00 +14°C° 0.2 mm 5 m/s 754 mmHg 83%
    22:00 +13°C° 0 mm 5 m/s 754 mmHg 84%
    23:00 +13°C° 0 mm 5 m/s 754 mmHg 84%

    Demain, 17 Juin, Lundi

    Heure Température Précipitation Vent Pression Humidité
    00:00 +13°C° 0 mm 5 m/s 754 mmHg 84%
    01:00 +13°C° 0 mm 5 m/s 754 mmHg 84%
    02:00 +13°C° 0 mm 5 m/s 754 mmHg 84%
    03:00 +12°C° 0 mm 5 m/s 754 mmHg 84%
    04:00 +12°C° 0.2 mm 5 m/s 754 mmHg 85%
    05:00 +12°C° 0.2 mm 5 m/s 754 mmHg 85%
    06:00 +12°C° 0.2 mm 4 m/s 754 mmHg 86%
    07:00 +13°C° 0.3 mm 4 m/s 754 mmHg 85%
    08:00 +13°C° 0.3 mm 5 m/s 754 mmHg 84%
    09:00 +14°C° 0.3 mm 5 m/s 755 mmHg 83%
    10:00 +15°C° 0.2 mm 5 m/s 755 mmHg 77%
    11:00 +16°C° 0.2 mm 6 m/s 755 mmHg 71%
    12:00 +17°C° 0.2 mm 6 m/s 755 mmHg 65%
    13:00 +17°C° 0.1 mm 6 m/s 754 mmHg 64%
    14:00 +17°C° 0.1 mm 6 m/s 754 mmHg 63%
    15:00 +19°C° 0.1 mm 6 m/s 754 mmHg 62%
    16:00 +17°C° 0.1 mm 6 m/s 754 mmHg 64%
    17:00 +17°C° 0.1 mm 5 m/s 754 mmHg 65%
    18:00 +17°C° 0.1 mm 5 m/s 754 mmHg 67%
    19:00 +15°C° 0 mm 5 m/s 754 mmHg 69%
    20:00 +14°C° 0 mm 4 m/s 755 mmHg 71%
    21:00 +13°C° 0 mm 3 m/s 755 mmHg 73%
    22:00 +12°C° 0 mm 3 m/s 755 mmHg 75%
    23:00 +12°C° 0 mm 3 m/s 755 mmHg 78%

    Après-demain, 18 Juin, Mardi

    Heure Température Précipitation Vent Pression Humidité
    00:00 +11°C° 0 mm 3 m/s 755 mmHg 81%
    01:00 +11°C° 0 mm 3 m/s 755 mmHg 82%
    02:00 +10°C° 0 mm 3 m/s 755 mmHg 84%
    03:00 +10°C° 0 mm 3 m/s 755 mmHg 85%
    04:00 +10°C° 0 mm 2 m/s 755 mmHg 84%
    05:00 +12°C° 0 mm 2 m/s 755 mmHg 84%
    06:00 +12°C° 0 mm 2 m/s 755 mmHg 83%
    07:00 +12°C° 0 mm 3 m/s 755 mmHg 78%
    08:00 +14°C° 0 mm 3 m/s 755 mmHg 73%
    09:00 +16°C° 0 mm 3 m/s 755 mmHg 68%
    10:00 +17°C° 0 mm 3 m/s 755 mmHg 64%
    11:00 +18°C° 0 mm 3 m/s 755 mmHg 60%
    12:00 +19°C° 0 mm 3 m/s 755 mmHg 57%
    13:00 +19°C° 0 mm 3 m/s 755 mmHg 58%
    14:00 +19°C° 0 mm 3 m/s 755 mmHg 60%
    15:00 +19°C° 0 mm 2 m/s 755 mmHg 62%
    16:00 +18°C° 0 mm 2 m/s 754 mmHg 65%
    17:00 +18°C° 0 mm 2 m/s 754 mmHg 67%
    18:00 +18°C° 0 mm 2 m/s 754 mmHg 69%
    19:00 +18°C° 0 mm 1 m/s 754 mmHg 72%
    20:00 +16°C° 0 mm 1 m/s 754 mmHg 75%
    21:00 +15°C° 0 mm 1 m/s 754 mmHg 78%
    22:00 +15°C° 0.2 mm 1 m/s 754 mmHg 79%
    23:00 +15°C° 0.2 mm 1 m/s 754 mmHg 80%

    19 Juin, Mercredi

    Heure Température Précipitation Vent Pression Humidité
    00:00 +14°C° 0.2 mm 1 m/s 753 mmHg 81%
    01:00 +14°C° 0.1 mm 1 m/s 753 mmHg 83%
    02:00 +14°C° 0.1 mm 1 m/s 753 mmHg 85%
    03:00 +14°C° 0.1 mm 1 m/s 753 mmHg 87%
    04:00 +14°C° 0 mm 1 m/s 752 mmHg 86%
    05:00 +15°C° 0 mm 1 m/s 752 mmHg 85%
    06:00 +15°C° 0 mm 1 m/s 752 mmHg 83%
    07:00 +15°C° 0 mm 1 m/s 752 mmHg 82%
    08:00 +16°C° 0 mm 1 m/s 752 mmHg 80%
    09:00 +16°C° 0 mm 1 m/s 752 mmHg 79%
    10:00 +16°C° 0.1 mm 1 m/s 751 mmHg 80%
    11:00 +16°C° 0.1 mm 2 m/s 751 mmHg 81%
    12:00 +16°C° 0.1 mm 2 m/s 751 mmHg 82%
    13:00 +15°C° 0.8 mm 2 m/s 751 mmHg 85%
    14:00 +13°C° 0.8 mm 3 m/s 751 mmHg 88%
    15:00 +13°C° 0.8 mm 3 m/s 750 mmHg 91%
    16:00 +13°C° 0.1 mm 3 m/s 750 mmHg 90%
    17:00 +13°C° 0.1 mm 2 m/s 750 mmHg 90%
    18:00 +13°C° 0.1 mm 2 m/s 750 mmHg 89%
    19:00 +13°C° 0 mm 2 m/s 750 mmHg 89%
    20:00 +13°C° 0 mm 2 m/s 751 mmHg 89%
    21:00 +12°C° 0 mm 2 m/s 751 mmHg 89%
    22:00 +12°C° 0 mm 2 m/s 751 mmHg 89%
    23:00 +10°C° 0 mm 2 m/s 751 mmHg 89%

    20 Juin, Jeudi

    Heure Température Précipitation Vent Pression Humidité
    00:00 +10°C° 0 mm 2 m/s 751 mmHg 89%
    01:00 +10°C° 0 mm 2 m/s 751 mmHg 90%
    02:00 +10°C° 0 mm 2 m/s 751 mmHg 91%
    03:00 +10°C° 0 mm 2 m/s 752 mmHg 93%
    04:00 +10°C° 0 mm 2 m/s 752 mmHg 91%
    05:00 +11°C° 0 mm 3 m/s 752 mmHg 89%
    06:00 +12°C° 0 mm 3 m/s 752 mmHg 87%
    07:00 +12°C° 0.1 mm 4 m/s 752 mmHg 82%
    08:00 +13°C° 0.1 mm 4 m/s 753 mmHg 76%
    09:00 +14°C° 0.1 mm 5 m/s 753 mmHg 71%
    10:00 +15°C° 0 mm 5 m/s 753 mmHg 65%
    11:00 +17°C° 0 mm 4 m/s 753 mmHg 59%
    12:00 +17°C° 0 mm 4 m/s 753 mmHg 53%
    13:00 +17°C° 0.1 mm 4 m/s 753 mmHg 54%
    14:00 +18°C° 0.1 mm 4 m/s 753 mmHg 55%
    15:00 +18°C° 0.1 mm 4 m/s 753 mmHg 56%
    16:00 +17°C° 0.2 mm 4 m/s 753 mmHg 59%
    17:00 +17°C° 0.2 mm 3 m/s 753 mmHg 62%
    18:00 +16°C° 0.2 mm 3 m/s 753 mmHg 64%
    19:00 +14°C° 0.1 mm 3 m/s 754 mmHg 67%
    20:00 +14°C° 0.1 mm 2 m/s 754 mmHg 70%
    21:00 +13°C° 0.1 mm 2 m/s 754 mmHg 72%
    22:00 +13°C° 0 mm 2 m/s 754 mmHg 74%
    23:00 +12°C° 0 mm 2 m/s 754 mmHg 76%

    21 Juin, Vendredi

    Heure Température Précipitation Vent Pression Humidité
    00:00 +12°C° 0 mm 2 m/s 755 mmHg 78%
    01:00 +10°C° 0 mm 2 m/s 755 mmHg 80%
    02:00 +10°C° 0 mm 2 m/s 755 mmHg 82%
    03:00 +10°C° 0 mm 2 m/s 755 mmHg 84%
    04:00 +10°C° 0 mm 2 m/s 755 mmHg 84%
    05:00 +12°C° 0 mm 2 m/s 755 mmHg 83%
    06:00 +12°C° 0 mm 2 m/s 755 mmHg 82%
    07:00 +13°C° 0.2 mm 2 m/s 756 mmHg 79%
    08:00 +13°C° 0.2 mm 3 m/s 756 mmHg 75%
    09:00 +14°C° 0.2 mm 3 m/s 756 mmHg 72%
    10:00 +15°C° 0.1 mm 4 m/s 756 mmHg 67%
    11:00 +17°C° 0.1 mm 4 m/s 756 mmHg 62%
    12:00 +16°C° 0.1 mm 5 m/s 756 mmHg 57%
    13:00 +16°C° 0 mm 5 m/s 756 mmHg 57%
    14:00 +16°C° 0 mm 5 m/s 756 mmHg 57%
    15:00 +16°C° 0 mm 5 m/s 757 mmHg 57%
    16:00 +15°C° 0 mm 5 m/s 757 mmHg 59%
    17:00 +15°C° 0 mm 5 m/s 757 mmHg 61%
    18:00 +14°C° 0 mm 5 m/s 757 mmHg 63%
    19:00 +13°C° 0 mm 4 m/s 758 mmHg 67%
    20:00 +12°C° 0 mm 4 m/s 759 mmHg 72%
    21:00 +10°C° 0 mm 3 m/s 759 mmHg 76%
    22:00 +10°C° 0 mm 2 m/s 759 mmHg 77%
    23:00 +10°C° 0 mm 2 m/s 760 mmHg 78%
    Voir plus